Wind_Speed
31 31 32 32 32 33 34 35 36 34 34 33 34 34 34 35 35 34 34 34 35 36 36 37 38 39 40 42 42 43 42 43 43 43 45 46 47 48 48 49 50 50 51 52
30 30 31 32 32 33 34 34 35 35 34 33 34 35 35 34 34 34 34 35 35 35 36 36 37 38 39 40 41 42 42 42 43 44 45 46 47 47 48 48 49 50 51 52
31 31 32 32 31 32 34 34 35 35 34 34 34 34 35 35 35 34 35 35 36 36 37 37 37 38 39 39 40 41 42 42 43 44 44 45 46 46 47 48 48 49 49 50
32 32 33 32 31 32 33 34 34 34 34 34 34 34 35 36 36 36 36 36 36 37 37 38 38 39 39 39 40 40 41 43 43 44 44 44 45 46 47 47 48 49 49 50
34 35 34 32 32 31 33 33 33 34 33 33 33 34 34 35 36 36 36 36 36 37 37 38 38 38 39 40 40 41 41 42 43 43 44 45 45 46 47 47 47 48 48 49
34 35 35 34 33 33 33 33 32 33 33 33 33 34 33 34 35 35 36 36 37 37 37 38 39 39 39 40 40 41 41 41 42 43 44 44 45 45 46 46 47 47 48 48
34 36 36 35 34 34 34 34 33 33 34 34 34 34 34 35 35 36 36 36 37 38 38 39 39 39 39 40 41 41 41 41 42 43 44 45 46 46 46 47 47 47 47 48
35 36 35 35 35 35 35 35 34 34 35 35 36 36 36 36 36 37 37 38 38 38 39 39 39 40 40 40 40 41 41 42 42 43 44 44 45 46 47 47 47 47 47 48
35 35 35 35 35 35 35 35 35 35 35 35 36 37 37 37 37 38 38 38 38 39 39 39 39 40 40 40 41 40 40 41 42 43 43 44 45 45 46 47 48 48 48 48
34 33 34 34 34 34 34 34 35 35 35 35 36 37 37 38 38 38 38 38 39 39 39 39 39 40 40 40 39 40 40 40 41 41 43 44 45 46 47 48 48 49 49 48
33 33 33 33 34 34 34 34 34 34 35 36 36 37 37 37 38 38 38 39 39 39 39 39 39 39 39 39 39 39 39 39 40 40 41 42 44 45 45 46 47 47 48 48
32 32 32 33 33 33 33 33 34 34 34 35 36 37 37 38 38 38 38 38 38 38 38 38 38 38 38 38 38 39 39 39 39 40 40 41 42 42 43 44 45 45 46 46
31 31 32 32 33 33 33 34 34 34 35 35 36 36 37 37 38 38 38 38 38 38 38 38 37 37 37 37 38 38 38 38 39 39 39 39 40 41 41 42 44 44 44 45
31 31 31 32 32 33 33 33 33 33 34 35 35 35 35 36 36 36 36 37 37 37 37 37 37 37 37 36 36 37 37 38 38 38 38 39 39 39 40 41 41 42 42 42
31 31 31 31 32 32 33 33 33 33 34 34 35 35 36 36 37 37 37 37 37 37 37 37 37 37 37 37 37 37 37 38 38 39 39 39 39 39 40 40 41 41 41 41
30 30 31 32 32 33 33 33 34 34 35 35 36 36 36 37 37 37 37 37 37 37 37 37 36 36 36 37 37 37 38 38 38 38 39 39 39 39 39 39 39 40 40 41
30 31 32 32 32 33 33 34 34 35 35 36 37 37 38 38 38 38 38 38 38 38 37 37 37 37 37 38 38 38 38 39 39 38 38 39 39 38 38 38 37 37 37 38
30 31 31 32 32 33 33 33 34 35 35 36 37 38 38 38 38 38 38 38 38 38 38 38 38 38 38 39 39 39 39 39 39 39 39 39 38 38 38 37 37 36 36 36
31 32 32 32 33 33 34 34 35 36 36 37 37 37 38 38 38 38 38 38 38 37 37 37 38 38 38 39 39 39 39 39 39 39 39 38 36 36 36 36 35 35 35 35
32 32 33 33 34 34 35 35 36 36 36 36 37 37 38 38 38 37 37 37 37 36 36 36 37 37 37 38 38 38 38 38 37 37 37 36 35 34 34 34 34 34 34 34
33 34 34 34 34 35 35 36 36 36 36 36 37 37 38 38 38 37 37 36 36 36 36 36 36 37 37 37 37 36 36 36 36 35 35 35 34 34 33 33 33 33 33 33
34 35 35 35 35 35 36 36 36 36 36 37 37 37 38 38 37 37 37 36 36 36 35 36 36 36 36 36 36 35 35 34 34 34 34 33 33 33 33 32 32 32 31 31
35 35 35 35 35 36 36 36 37 37 37 37 37 37 37 37 37 36 36 35 35 35 35 35 35 35 35 34 34 34 34 33 33 33 33 32 32 32 32 32 31 31 31 31
35 35 35 35 36 36 36 37 37 37 37 37 37 37 37 37 36 36 35 35 34 34 34 34 33 33 33 33 33 33 33 32 32 31 31 31 30 30 30 30 30 30 30 30
35 35 35 35 36 36 36 36 36 37 37 37 37 36 36 36 36 36 35 34 34 34 33 33 33 33 32 32 32 32 31 31 30 30 30 29 29 28 28 29 29 29 29 29
35 35 35 35 35 35 36 36 36 36 36 36 36 36 36 36 35 35 34 34 34 34 33 33 33 32 32 31 31 30 30 29 29 29 29 28 28 28 27 27 27 28 28 28
35 34 34 34 34 35 35 35 35 35 35 35 35 36 36 35 35 34 34 34 33 33 33 32 32 31 31 30 30 29 28 28 27 27 27 27 26 26 26 26 26 26 26 26
Wind_Direction
286 285 284 284 282 280 279 280 281 283 282 282 282 281 281 281 280 279 279 280 280 279 277 274 273 271 269 268 266 265 264 264 263 262 260 258 258 258 259 259 259 258 258 258
286 284 285 283 282 281 280 281 282 283 283 283 282 282 282 283 282 280 280 281 280 279 278 276 273 272 270 269 267 265 264 264 264 264 261 260 259 260 259 260 260 259 258 258
287 285 285 284 285 284 282 281 283 282 283 283 281 281 281 282 282 281 281 281 281 281 279 278 276 274 272 270 268 266 265 265 265 265 263 262 261 260 260 261 261 260 259 259
289 288 286 289 287 286 285 284 284 283 283 282 281 280 281 282 283 283 282 282 282 281 281 279 278 275 273 271 269 268 267 267 267 266 264 263 262 261 260 260 261 261 260 259
289 289 288 288 290 290 288 286 285 284 284 283 282 281 282 283 283 284 284 283 283 282 281 281 279 277 274 272 270 270 270 269 267 266 265 264 263 263 262 262 262 262 261 260
289 288 288 290 289 289 289 286 286 285 284 284 284 283 284 285 284 284 284 284 284 284 283 282 281 278 276 273 272 272 270 269 268 266 265 264 264 263 263 262 263 263 262 261
289 288 288 289 290 290 288 289 288 286 285 285 285 286 286 286 286 285 285 286 285 285 284 283 281 279 277 275 274 272 271 270 269 267 266 265 265 264 263 263 263 263 263 262
291 288 289 289 289 289 289 289 289 288 286 285 285 285 285 286 286 286 286 286 286 284 283 283 281 280 278 277 275 273 271 270 270 269 269 268 267 266 265 264 263 263 263 262
290 289 289 289 289 289 289 289 289 288 287 286 286 286 285 285 285 286 286 286 286 285 284 282 281 280 280 278 276 275 273 272 271 271 270 269 268 267 266 265 264 264 263 263
291 291 289 289 289 289 289 289 290 288 286 286 286 286 286 286 286 286 286 285 285 285 284 282 281 281 280 279 278 276 276 274 273 272 270 269 269 269 267 266 266 265 264 263
291 291 289 288 288 289 289 289 289 288 287 286 287 287 287 287 287 286 286 286 286 286 284 283 282 281 280 279 278 277 277 276 275 274 272 271 271 270 269 268 268 267 265 264
293 292 290 289 289 289 288 289 289 289 289 289 288 288 288 287 287 287 287 287 287 286 285 284 283 282 282 281 280 278 277 277 277 277 275 274 272 272 272 271 269 268 266 265
294 293 291 291 290 289 288 289 289 290 290 291 291 291 290 289 289 288 288 288 287 287 286 285 284 283 283 283 281 280 279 278 278 278 277 276 274 273 272 271 271 270 268 266
295 295 293 292 291 291 290 291 291 292 292 292 293 293 293 292 291 290 290 289 289 288 287 286 284 283 283 283 283 281 280 279 278 278 277 276 275 275 274 272 270 269 269 267
295 296 296 294 293 293 292 292 292 292 293 293 294 295 294 294 293 291 291 290 289 288 288 287 285 284 283 283 283 283 283 282 280 279 278 277 276 276 276 275 272 269 268 267
296 296 296 295 295 294 294 294 293 292 293 294 295 295 295 295 293 292 291 291 290 289 288 287 286 284 284 284 284 284 284 283 282 280 279 277 277 277 276 275 273 270 269 267
295 296 296 296 296 296 295 295 295 294 294 295 295 296 295 295 294 293 292 291 290 289 287 286 285 284 285 285 285 285 285 284 283 282 280 279 277 277 276 275 274 271 269 267
296 296 296 296 297 296 296 296 296 295 295 296 296 296 296 296 296 294 293 292 290 289 287 286 285 284 284 285 285 285 284 283 282 282 282 280 279 277 276 276 274 272 270 268
297 297 297 297 297 296 296 297 297 296 296 297 297 298 298 297 297 296 295 294 292 290 289 288 287 286 286 286 286 286 285 284 283 282 282 281 278 278 277 276 274 272 271 269
297 297 297 297 297 297 296 297 298 298 298 298 298 299 299 299 298 297 296 295 294 292 290 289 289 288 288 288 287 286 286 285 284 283 282 280 278 277 276 276 275 273 271 270
298 298 298 297 297 297 298 298 299 299 299 299 299 299 300 300 299 298 297 296 295 293 291 290 290 290 289 288 288 287 286 285 285 284 282 280 277 276 276 276 275 274 272 270
298 298 298 298 298 298 299 299 300 300 300 301 301 300 301 301 300 299 298 297 296 295 293 292 291 291 290 289 288 288 286 285 284 284 282 280 277 275 275 275 274 273 271 269
299 298 298 297 297 298 299 299 300 301 301 301 302 302 302 301 301 300 299 299 297 296 295 294 293 292 291 290 289 288 286 285 284 283 282 280 277 275 274 273 273 272 270 269
300 299 298 298 298 298 299 300 300 301 302 302 302 303 303 302 301 301 299 299 298 298 297 296 295 294 293 291 290 289 287 286 284 282 281 280 278 275 274 273 272 272 271 269
301 300 300 300 299 299 300 300 301 302 303 303 303 303 303 302 301 301 300 299 299 298 298 297 297 296 295 293 292 290 288 286 283 282 281 280 278 276 275 274 273 272 271 269
301 301 300 300 300 301 301 302 302 302 303 303 303 304 303 303 302 301 300 299 299 298 298 298 297 296 296 295 293 291 289 287 284 282 281 280 278 276 275 275 274 273 271 269
302 302 302 301 302 302 303 303 303 303 303 303 304 304 304 304 303 302 302 301 300 299 299 298 298 297 296 295 293 291 289 288 286 283 281 280 279 278 276 274 273 272 271 270
Height
5565 5562 5560 5558 5557 5554 5551 5548 5546 5545 5544 5543 5541 5538 5536 5534 5531 5529 5527 5525 5523 5521 5519 5517 5516 5515 5514 5514 5513 5513 5513 5514 5514 5514 5515 5515 5516 5517 5518 5519 5520 5522 5523 5525
5555 5553 5550 5548 5547 5544 5542 5539 5537 5535 5534 5533 5530 5528 5525 5523 5521 5519 5517 5514 5512 5510 5508 5506 5504 5503 5502 5501 5500 5500 5500 5501 5501 5501 5501 5501 5502 5502 5503 5504 5505 5506 5507 5509
5546 5544 5540 5538 5538 5535 5532 5530 5527 5525 5525 5522 5520 5517 5515 5513 5511 5508 5506 5504 5501 5499 5496 5494 5493 5491 5490 5488 5488 5487 5487 5487 5487 5487 5487 5487 5488 5488 5489 5489 5490 5491 5492 5493
5535 5533 5530 5532 5528 5525 5522 5520 5517 5515 5513 5511 5509 5507 5504 5502 5500 5498 5495 5493 5491 5488 5486 5483 5481 5479 5477 5476 5475 5475 5474 5474 5474 5473 5473 5473 5474 5474 5474 5475 5475 5476 5477 5477
5525 5521 5520 5521 5518 5515 5512 5510 5508 5505 5503 5501 5498 5496 5494 5492 5489 5487 5485 5482 5480 5477 5474 5472 5469 5467 5466 5465 5463 5463 5462 5461 5461 5460 5460 5460 5460 5460 5460 5460 5461 5461 5462 5462
5515 5511 5509 5512 5508 5504 5502 5499 5498 5495 5493 5490 5488 5486 5485 5481 5478 5476 5473 5471 5468 5466 5463 5461 5458 5456 5454 5453 5451 5450 5449 5448 5448 5447 5447 5446 5446 5446 5446 5446 5446 5446 5447 5448
5506 5501 5500 5500 5497 5494 5492 5491 5488 5485 5482 5480 5477 5476 5473 5470 5468 5465 5463 5460 5457 5455 5452 5449 5447 5445 5443 5441 5439 5438 5437 5436 5435 5434 5433 5433 5432 5432 5432 5432 5432 5432 5433 5433
5496 5492 5493 5489 5486 5484 5482 5479 5477 5474 5472 5469 5467 5464 5462 5459 5457 5454 5452 5449 5446 5443 5441 5438 5435 5433 5431 5429 5427 5425 5424 5423 5422 5421 5420 5419 5419 5418 5418 5417 5417 5417 5418 5418
5487 5486 5482 5478 5475 5473 5471 5469 5466 5463 5461 5458 5456 5453 5451 5448 5446 5443 5440 5437 5434 5432 5429 5426 5423 5421 5419 5417 5414 5413 5411 5410 5409 5407 5406 5405 5405 5404 5403 5403 5403 5403 5403 5403
5476 5475 5472 5468 5465 5463 5460 5458 5455 5452 5450 5447 5445 5442 5440 5437 5434 5431 5428 5426 5423 5420 5417 5414 5411 5409 5406 5404 5402 5400 5399 5397 5395 5394 5393 5391 5390 5389 5389 5388 5388 5387 5387 5388
5467 5465 5461 5458 5455 5453 5450 5447 5444 5442 5439 5436 5434 5431 5428 5425 5423 5420 5417 5414 5411 5408 5405 5402 5399 5397 5394 5392 5390 5388 5386 5385 5383 5381 5379 5378 5376 5375 5374 5373 5372 5372 5372 5372
5458 5455 5452 5449 5446 5443 5440 5437 5434 5431 5429 5426 5423 5420 5417 5414 5411 5408 5405 5402 5399 5396 5393 5390 5388 5385 5382 5380 5378 5376 5374 5372 5370 5368 5366 5364 5363 5361 5359 5358 5357 5356 5356 5356
5448 5445 5442 5439 5436 5433 5430 5427 5424 5421 5418 5416 5412 5409 5406 5403 5400 5397 5394 5391 5387 5384 5381 5379 5376 5373 5371 5369 5366 5364 5362 5360 5358 5355 5353 5351 5349 5348 5347 5345 5343 5342 5342 5342
5438 5435 5432 5429 5426 5423 5420 5417 5414 5411 5408 5405 5402 5398 5395 5392 5389 5385 5382 5379 5376 5373 5370 5367 5365 5362 5359 5357 5354 5352 5350 5347 5345 5343 5341 5339 5337 5335 5333 5332 5330 5329 5329 5328
5429 5426 5423 5420 5417 5413 5410 5407 5404 5401 5398 5395 5391 5388 5385 5381 5378 5374 5371 5368 5365 5362 5359 5356 5353 5351 5348 5345 5343 5340 5338 5335 5333 5331 5329 5326 5324 5322 5320 5318 5317 5316 5316 5315
5419 5416 5413 5410 5407 5404 5401 5398 5394 5391 5388 5385 5381 5377 5374 5370 5366 5363 5359 5356 5353 5350 5347 5344 5341 5339 5336 5334 5331 5328 5326 5323 5321 5318 5316 5314 5312 5310 5308 5306 5304 5303 5303 5302
5410 5407 5404 5401 5398 5394 5391 5388 5384 5381 5377 5374 5370 5366 5362 5359 5355 5351 5348 5344 5341 5338 5335 5332 5330 5327 5324 5322 5319 5316 5314 5311 5308 5306 5304 5302 5299 5298 5296 5294 5292 5291 5290 5289
5400 5397 5394 5391 5388 5385 5381 5378 5374 5370 5366 5363 5359 5355 5351 5347 5343 5339 5336 5332 5329 5326 5323 5320 5317 5315 5312 5309 5306 5304 5301 5298 5296 5293 5291 5289 5287 5285 5283 5282 5280 5279 5278 5277
5391 5388 5384 5381 5378 5374 5371 5367 5363 5359 5355 5352 5348 5344 5340 5336 5332 5328 5324 5320 5317 5314 5310 5307 5305 5302 5299 5296 5293 5291 5288 5285 5282 5280 5278 5276 5274 5272 5271 5270 5268 5267 5266 5265
5381 5378 5374 5371 5367 5364 5360 5356 5352 5348 5344 5340 5337 5333 5328 5324 5320 5316 5312 5309 5305 5302 5298 5295 5292 5289 5287 5284 5281 5278 5275 5272 5270 5267 5265 5264 5262 5260 5259 5257 5256 5255 5254 5254
5371 5367 5364 5360 5356 5352 5349 5345 5341 5337 5333 5329 5325 5321 5317 5313 5308 5304 5301 5297 5293 5290 5287 5283 5280 5277 5274 5271 5268 5265 5263 5260 5258 5255 5253 5251 5250 5248 5247 5246 5245 5244 5243 5242
5360 5357 5353 5349 5345 5341 5337 5334 5330 5326 5322 5318 5314 5310 5306 5301 5297 5293 5289 5286 5282 5278 5275 5271 5268 5265 5262 5259 5256 5254 5251 5248 5246 5243 5241 5239 5238 5237 5235 5234 5233 5232 5231 5231
5349 5345 5342 5338 5334 5330 5326 5322 5319 5315 5311 5307 5302 5298 5294 5290 5286 5282 5278 5274 5270 5267 5263 5260 5256 5253 5250 5247 5244 5242 5239 5237 5234 5232 5230 5228 5227 5225 5224 5223 5222 5221 5220 5220
5338 5334 5330 5326 5322 5319 5315 5311 5307 5303 5299 5295 5291 5287 5283 5279 5274 5270 5267 5263 5259 5256 5252 5249 5245 5242 5239 5236 5233 5230 5228 5225 5223 5221 5219 5217 5216 5214 5213 5212 5211 5210 5210 5209
5327 5323 5319 5315 5311 5307 5304 5300 5296 5292 5288 5284 5280 5275 5271 5267 5263 5259 5255 5252 5248 5244 5241 5238 5234 5231 5228 5225 5222 5219 5217 5214 5212 5210 5209 5207 5206 5204 5203 5202 5201 5200 5199 5199
5316 5312 5308 5304 5300 5296 5292 5288 5285 5281 5277 5273 5268 5264 5260 5256 5252 5248 5244 5241 5237 5234 5230 5227 5223 5220 5217 5214 5211 5209 5206 5204 5202 5200 5198 5197 5196 5194 5193 5192 5191 5190 5189 5189
5305 5301 5297 5293 5289 5285 5281 5278 5274 5270 5266 5262 5258 5254 5249 5245 5241 5238 5234 5230 5226 5223 5219 5216 5213 5210 5207 5204 5201 5198 5196 5194 5192 5190 5189 5187 5186 5185 5183 5182 5181 5180 5180 5179